Location: Charleville
(26.4021°S, 146.2454°E)
Time: 14:25:19
(UTC+10:00)

ACS3 Solar Sail - Visible Passes

Search period start: 18 September 2024 00:00
Search period end: 28 September 2024 00:00
Orbit: 971 x 1035 km, 97.4° (Epoch: 17 September)

Date Brightness Start Highest point End Pass type
(mag) Time Alt. Az. Time Alt. Az. Time Alt. Az.
24 Sep 4.5 21:51:03 10° S 21:51:06 10° S 21:51:06 10° S visible
26 Sep 4.2 21:11:36 10° S 21:12:14 13° S 21:12:14 13° S visible
27 Sep 4.3 21:44:28 10° S 21:45:19 14° SSW 21:45:19 14° SSW visible
